{"data":{"norad_id":59847,"epoch":"2026-09-21T15:56:33.607968Z","epoch_age_seconds":73876,"freshness":"FRESH","line1":"1 59847U 24097N   26264.66427787 -.00000290  00000+0 -10389-5 0  9990","line2":"2 59847  43.0021 248.0226 0000820 276.3081  83.7677 15.27574542131887","mean_motion":15.27574542,"eccentricity":8.2e-5,"inclination_deg":43.0021,"raan_deg":248.0226,"arg_perigee_deg":276.3081,"mean_anomaly_deg":83.7677,"bstar":-1.0389e-6,"rev_number":13188,"period_min":94.267085527274,"perigee_km":482.5028207038,"apogee_km":483.62805790384,"semimajor_km":6861.2024393038,"source":"CELESTRAK","updated_at":"2026-09-22T09:00:49.097586Z"}}